User: anonymous
Location: Mason Neck State Park
(38.6428°N, 77.1981°W)
Time: 01:30:23
(UTC-04:00)
Language:

Cosmos 1400 Rocket - Orbit

View from above orbital plane
View from above orbital plane
View from above satellite
View from above satellite

Ground track
Ground track

The orbit data is extracted from the following two-line orbital elements,

1 13403U 82079B   14105.20570114  .00002683  00000-0  19361-3 0  5424
2 13403 081.1703 154.3562 0037580 129.9239 230.5296 15.03226583722358
Epoch (UTC): 15 April 2014 04:56:12
Eccentricity: 0.0037580
inclination: 81.1703°
perigee height: 531 km
apogee height: 583 km
right ascension of ascending node: 154.3562°
argument of perigee: 129.9239°
revolutions per day: 15.03226583
mean anomaly at epoch: 230.5296°
orbit number at epoch: 72235

The dashed part of the orbit path shows where the satellite is in the earth's shadow,  

DLR